Location: Bron Breck
(40.6655°N, 111.8083°W)
Time: 01:52:18
(UTC+00:00)

Envisat - Pass Details

Date: 05 March 2021
Orbit: 764 x 766 km, 98.1° (Epoch: 11 April)

Event Time Altitude Azimuth Distance (km) Brightness Sun altitude
Rises 12:06:54 0° 27° (NNE) 3,239 6.8 -21.1°
Reaches altitude 10° 12:09:43 10° 42° (NE) 2,308 6.2 -20.6°
Maximum altitude 12:13:40 22° 93° (E) 1,606 5.5 -19.9°
Drops below altitude 10° 12:17:35 10° 145° (SE) 2,294 5.8 -19.1°
Sets 12:20:21 0° 160° (SSE) 3,214 6.4 -18.6°
